Weather in Grigoryevskoye

Russia / Yaroslavl Oblast     57°42′16″N   40°00′14″E
temp.,
°C
wind,
m/s
gust,
m/s
humid.,
%
clouds,
%
prec.,
mm/h
press.,
hPa
HPBL,
m
16 april, fri
fri1600:00+6ene7147899 0.0 1024582
03:00+5ene71485100 0.0 1025527
06:00+4ene71479100 0.0 1025490
09:00+7ene7116675 0.0 1026603
12:00+11ene795658 0.0 1026906
15:00+13ene79519 0.0 10261091
18:00+11ene6105520 0.0 1026897
21:00+7ene6136410 0.0 1027459
17 april, sat
sat1700:00+5ene6137328 0.0 1028432
03:00+4ene612778 0.0 1028354
06:00+3ene613775 0.0 1028363
09:00+7e710545 0.0 1029590
12:00+11e78385 0.0 1028985
15:00+13ene78335 0.0 10271228
18:00+11ene59433 0.0 1027643
21:00+7ene512630 0.0 1028279
18 april, sun
sun1800:00+5ene512700 0.0 1028296
03:00+3ene511770 0.0 1028247
06:00+3ene512802 0.0 1028303
09:00+8e610620 0.0 1028746
12:00+12ene79435 0.0 10271567
15:00+13ene794143 0.0 10272014
18:00+11ene795166 0.0 10271138
21:00+7ene7127377 0.0 1028567
19 april, mon
mon1900:00+5ene61179100 0.0 1029544
03:00+4ene51077100 0.0 1029494
06:00+3ene51070100 0.0 1030493
09:00+5e695895 0.0 1031694
12:00+9e784822 0.0 10301223
15:00+10ese784214 0.0 10301567
18:00+9ese69476 0.0 10291384
21:00+6e512525 0.0 1030406
20 april, tue
tue2000:00+4e6135615 0.0 1029459
03:00+2e6136182 0.0 1029410
06:00+1e613655 0.0 1028479
09:00+5e81358100 0.0 1026759
12:00+9ese9125270 0.0 10231192
15:00+11ese101553100 0.0 10211332
18:00+9ese101855100 0.0 10181200
21:00+8ese111859100 0.6 10161103